,,,PA_Meas_PMT16A,,PR_Meas_QMR101_102,,RH_Meas_QMH101,,SR_Meas_QMS101,,TA_Meas_QMH101,,GenWind,,GenWind,
date,time,status,PA,status,PR,status,RH,status,SR,status,TA,status,DirAvg,status,SpdAvg,
2008-11-02, 00:00:04,VALID,1006.44,VALID,0,VALID,95.4449,VALID,0,VALID,22.9834,VALID,348,VALID,0,
2008-11-02, 00:01:04,VALID,1006.46,VALID,0,VALID,95.4373,VALID,0,VALID,22.9657,VALID,348,VALID,0,
2008-11-02, 00:02:04,VALID,1006.46,VALID,0,VALID,95.4907,VALID,0,VALID,22.9251,VALID,348,VALID,0,
2008-11-02, 00:03:04,VALID,1006.46,VALID,0,VALID,95.5441,VALID,0,VALID,22.9251,VALID,348,VALID,0,
2008-11-02, 00:04:04,VALID,1006.43,VALID,0,VALID,95.6204,VALID,0,VALID,22.9445,VALID,348,VALID,0,
2008-11-02, 00:05:04,VALID,1006.42,VALID,0,VALID,95.689,VALID,0,VALID,22.9251,VALID,348,VALID,0,
2008-11-02, 00:06:04,VALID,1006.39,VALID,0,VALID,95.7043,VALID,0,VALID,22.9445,VALID,348,VALID,0,
2008-11-02, 00:07:04,VALID,1006.4,VALID,0,VALID,95.7348,VALID,0,VALID,22.964,VALID,348,VALID,0,
2008-11-02, 00:08:04,VALID,1006.38,VALID,0,VALID,95.7348,VALID,0,VALID,22.9657,VALID,348,VALID,0,
2008-11-02, 00:09:04,VALID,1006.37,VALID,0,VALID,95.7806,VALID,0,VALID,22.964,VALID,348,VALID,0,
2008-11-02, 00:10:04,VALID,1006.34,VALID,0,VALID,95.7806,VALID,0,VALID,22.9852,VALID,348,VALID,0,
2008-11-02, 00:11:04,VALID,1006.32,VALID,0,VALID,95.8493,VALID,0,VALID,22.9834,VALID,348,VALID,0,
2008-11-02, 00:12:04,VALID,1006.32,VALID,0,VALID,95.8035,VALID,0,VALID,22.9834,VALID,348,VALID,0,
2008-11-02, 00:13:04,VALID,1006.31,VALID,0,VALID,95.7959,VALID,0,VALID,22.9428,VALID,348,VALID,0,
2008-11-02, 00:14:04,VALID,1006.32,VALID,0,VALID,95.7882,VALID,0,VALID,22.964,VALID,348,VALID,0,
2008-11-02, 00:15:04,VALID,1006.33,VALID,0,VALID,95.6356,VALID,0,VALID,22.8861,VALID,348,VALID,0,
2008-11-02, 00:16:04,VALID,1006.29,VALID,0,VALID,95.6204,VALID,0,VALID,22.8472,VALID,348,VALID,0,
2008-11-02, 00:17:04,VALID,1006.27,VALID,0,VALID,95.6356,VALID,0,VALID,22.7888,VALID,348,VALID,0,
2008-11-02, 00:18:04,VALID,1006.26,VALID,0,VALID,95.6738,VALID,0,VALID,22.7888,VALID,348,VALID,0,
2008-11-02, 00:19:04,VALID,1006.23,VALID,0,VALID,95.6814,VALID,0,VALID,22.7906,VALID,348,VALID,0,
2008-11-02, 00:20:04,VALID,1006.25,VALID,0,VALID,95.6967,VALID,0,VALID,22.7305,VALID,348,VALID,0,
2008-11-02, 00:21:04,VALID,1006.21,VALID,0,VALID,95.8111,VALID,0,VALID,22.7694,VALID,348,VALID,0,
2008-11-02, 00:22:04,VALID,1006.21,VALID,0,VALID,95.8416,VALID,0,VALID,22.7694,VALID,348,VALID,0,
2008-11-02, 00:23:04,VALID,1006.22,VALID,0,VALID,95.9103,VALID,0,VALID,22.8083,VALID,348,VALID,0,
2008-11-02, 00:24:04,VALID,1006.22,VALID,0,VALID,95.9408,VALID,0,VALID,22.8066,VALID,348,VALID,0,
2008-11-02, 00:25:04,VALID,1006.22,VALID,0,VALID,95.8798,VALID,0,VALID,22.81,VALID,350,VALID,0,
2008-11-02, 00:26:04,VALID,1006.14,VALID,0,VALID,95.9866,VALID,0,VALID,22.8684,VALID,36,VALID,0.782031,
2008-11-02, 00:27:04,VALID,1006.15,VALID,0,VALID,95.9789,VALID,0,VALID,22.8667,VALID,36,VALID,0.597266,
2008-11-02, 00:28:04,VALID,1006.14,VALID,0,VALID,95.834,VALID,0,VALID,22.8278,VALID,36,VALID,0.303516,
2008-11-02, 00:29:04,VALID,1006.12,VALID,0,VALID,95.7348,VALID,0,VALID,22.7711,VALID,36,VALID,0.411328,
2008-11-02, 00:30:04,VALID,1006.09,VALID,0,VALID,95.7272,VALID,0,VALID,22.7305,VALID,36,VALID,0.334766,
2008-11-02, 00:31:04,VALID,1006.08,VALID,0,VALID,95.773,VALID,0,VALID,22.7711,VALID,36,VALID,0.184375,
2008-11-02, 00:32:04,VALID,1006.07,VALID,0,VALID,95.8035,VALID,0,VALID,22.7322,VALID,36,VALID,0.407031,
2008-11-02, 00:33:04,VALID,1006.03,VALID,0,VALID,95.8264,VALID,0,VALID,22.711,VALID,36,VALID,0.344141,
2008-11-02, 00:34:04,VALID,1006.05,VALID,0,VALID,95.8569,VALID,0,VALID,22.711,VALID,36,VALID,0.442187,
2008-11-02, 00:35:04,VALID,1006.02,VALID,0,VALID,95.9103,VALID,0,VALID,22.711,VALID,36,VALID,0.342969,
2008-11-02, 00:36:04,VALID,1006.04,VALID,0,VALID,95.9637,VALID,0,VALID,22.7516,VALID,36,VALID,0.346094,
2008-11-02, 00:37:04,VALID,1006.03,VALID,0,VALID,95.9484,VALID,0,VALID,22.7516,VALID,36,VALID,0.266406,
2008-11-02, 00:38:04,VALID,1006.06,VALID,0,VALID,95.9637,VALID,0,VALID,22.7305,VALID,36,VALID,0.254687,
2008-11-02, 00:39:04,VALID,1006.07,VALID,0,VALID,96.0095,VALID,0,VALID,22.7499,VALID,36,VALID,0.252734,
2008-11-02, 00:40:04,VALID,1006.05,VALID,0,VALID,96.0247,VALID,0,VALID,22.7694,VALID,36,VALID,0.204297,
2008-11-02, 00:41:04,VALID,1006.06,VALID,0,VALID,96.0476,VALID,0,VALID,22.8083,VALID,36,VALID,0.137891,
2008-11-02, 00:42:04,VALID,1006.04,VALID,0,VALID,96.0476,VALID,0,VALID,22.8278,VALID,36,VALID,0.113281,
2008-11-02, 00:43:04,VALID,1006.05,VALID,0,VALID,96.0476,VALID,0,VALID,22.8489,VALID,36,VALID,0,
2008-11-02, 00:44:04,VALID,1006.03,VALID,0,VALID,96.0095,VALID,0,VALID,22.8489,VALID,36,VALID,0,
2008-11-02, 00:45:04,VALID,1005.98,VALID,0,VALID,96.0171,VALID,0,VALID,22.8489,VALID,36,VALID,0.0820313,
2008-11-02, 00:46:04,VALID,1006,VALID,0,VALID,96.0323,VALID,0,VALID,22.8472,VALID,36,VALID,0.169922,
2008-11-02, 00:47:04,VALID,1005.98,VALID,0,VALID,96.0323,VALID,0,VALID,22.8472,VALID,36,VALID,0.120703,
2008-11-02, 00:48:04,VALID,1005.99,VALID,0,VALID,96.0171,VALID,0,VALID,22.8472,VALID,36,VALID,0,
2008-11-02, 00:49:04,VALID,1006,VALID,0,VALID,96.0171,VALID,0,VALID,22.8667,VALID,36,VALID,0.230469,
2008-11-02, 00:50:04,VALID,1005.96,VALID,0,VALID,96.0781,VALID,0,VALID,22.9056,VALID,36,VALID,0.221484,
2008-11-02, 00:51:04,VALID,1005.97,VALID,0,VALID,96.0781,VALID,0,VALID,22.9463,VALID,36,VALID,0.205859,
2008-11-02, 00:52:04,VALID,1005.95,VALID,0,VALID,96.0857,VALID,0,VALID,22.964,VALID,36,VALID,0.170703,
2008-11-02, 00:53:04,VALID,1005.97,VALID,0,VALID,96.0781,VALID,0,VALID,22.964,VALID,36,VALID,0.191406,
2008-11-02, 00:54:04,VALID,1005.95,VALID,0,VALID,96.04,VALID,0,VALID,22.9834,VALID,36,VALID,0,
2008-11-02, 00:55:04,VALID,1005.96,VALID,0,VALID,95.9561,VALID,0,VALID,22.964,VALID,36,VALID,0.355078,
2008-11-02, 00:56:04,VALID,1005.92,VALID,0,VALID,95.9713,VALID,0,VALID,22.964,VALID,36,VALID,0.482422,
2008-11-02, 00:57:04,VALID,1005.93,VALID,0,VALID,95.9789,VALID,0,VALID,22.9834,VALID,36,VALID,0.163281,
2008-11-02, 00:58:04,VALID,1005.92,VALID,0,VALID,95.9866,VALID,0,VALID,23.0224,VALID,36,VALID,0.276172,
2008-11-02, 00:59:04,VALID,1005.88,VALID,0,VALID,95.9789,VALID,0,VALID,23.0224,VALID,36,VALID,0.635938,
2008-11-02, 01:00:04,VALID,1005.88,VALID,0,VALID,95.8721,VALID,0,VALID,23.0046,VALID,36,VALID,0.325391,
2008-11-02, 01:01:04,VALID,1005.87,VALID,0,VALID,95.8187,VALID,0,VALID,22.964,VALID,36,VALID,0.222266,
2008-11-02, 01:02:04,VALID,1005.87,VALID,0,VALID,95.8111,VALID,0,VALID,22.9463,VALID,36,VALID,0.207422,
2008-11-02, 01:03:04,VALID,1005.85,VALID,0,VALID,95.9103,VALID,0,VALID,22.9852,VALID,36,VALID,0,
2008-11-02, 01:04:04,VALID,1005.85,VALID,0,VALID,95.9103,VALID,0,VALID,23.0046,VALID,36,VALID,0,
2008-11-02, 01:05:04,VALID,1005.83,VALID,0,VALID,95.9179,VALID,0,VALID,22.964,VALID,36,VALID,0,
2008-11-02, 01:06:04,VALID,1005.83,VALID,0,VALID,95.9179,VALID,0,VALID,22.9834,VALID,36,VALID,0,
2008-11-02, 01:07:04,VALID,1005.83,VALID,0,VALID,95.9484,VALID,0,VALID,22.9817,VALID,36,VALID,0,
2008-11-02, 01:08:04,VALID,1005.83,VALID,0,VALID,95.9408,VALID,0,VALID,23.0418,VALID,36,VALID,0,
2008-11-02, 01:09:04,VALID,1005.83,VALID,0,VALID,95.9713,VALID,0,VALID,23.0825,VALID,36,VALID,0,
2008-11-02, 01:10:04,VALID,1005.83,VALID,0,VALID,95.9637,VALID,0,VALID,23.0825,VALID,35,VALID,0.00078125,
2008-11-02, 01:11:04,VALID,1005.82,VALID,0,VALID,95.9408,VALID,0,VALID,23.0613,VALID,33,VALID,0.337109,
2008-11-02, 01:12:04,VALID,1005.82,VALID,0,VALID,95.895,VALID,0,VALID,23.1019,VALID,33,VALID,0.563281,
2008-11-02, 01:13:04,VALID,1005.8,VALID,0,VALID,95.834,VALID,0,VALID,23.063,VALID,33,VALID,0.272266,
2008-11-02, 01:14:04,VALID,1005.8,VALID,0,VALID,95.7959,VALID,0,VALID,23.0241,VALID,33,VALID,0,
2008-11-02, 01:15:04,VALID,1005.82,VALID,0,VALID,95.7348,VALID,0,VALID,22.9445,VALID,33,VALID,0.199219,
2008-11-02, 01:16:04,VALID,1005.82,VALID,0,VALID,95.773,VALID,0,VALID,22.9657,VALID,33,VALID,0.446875,
2008-11-02, 01:17:04,VALID,1005.82,VALID,0,VALID,95.8493,VALID,0,VALID,22.9657,VALID,33,VALID,0.284766,
2008-11-02, 01:18:04,VALID,1005.82,VALID,0,VALID,95.8493,VALID,0,VALID,22.9445,VALID,33,VALID,0.330859,
2008-11-02, 01:19:04,VALID,1005.85,VALID,0,VALID,95.8645,VALID,0,VALID,22.9445,VALID,33,VALID,0.181641,
2008-11-02, 01:20:04,VALID,1005.85,VALID,0,VALID,95.8645,VALID,0,VALID,22.9657,VALID,33,VALID,0.128906,
2008-11-02, 01:21:04,VALID,1005.85,VALID,0,VALID,95.8645,VALID,0,VALID,22.9251,VALID,33,VALID,0,
2008-11-02, 01:22:04,VALID,1005.85,VALID,0,VALID,95.8416,VALID,0,VALID,22.9463,VALID,33,VALID,0,
2008-11-02, 01:23:04,VALID,1005.84,VALID,0,VALID,95.895,VALID,0,VALID,22.9463,VALID,33,VALID,0,
2008-11-02, 01:24:04,VALID,1005.86,VALID,0,VALID,95.9255,VALID,0,VALID,22.9251,VALID,33,VALID,0.0339844,
2008-11-02, 01:25:04,VALID,1005.8,VALID,0,VALID,95.9255,VALID,0,VALID,22.9463,VALID,33,VALID,0.249219,
2008-11-02, 01:26:04,VALID,1005.81,VALID,0,VALID,95.9484,VALID,0,VALID,22.9657,VALID,33,VALID,0,
2008-11-02, 01:27:04,VALID,1005.82,VALID,0,VALID,95.9255,VALID,0,VALID,22.9445,VALID,33,VALID,0,
2008-11-02, 01:28:04,VALID,1005.81,VALID,0,VALID,95.9637,VALID,0,VALID,22.9852,VALID,33,VALID,0,
2008-11-02, 01:29:04,VALID,1005.8,VALID,0,VALID,95.9408,VALID,0,VALID,22.964,VALID,33,VALID,0,
2008-11-02, 01:30:04,VALID,1005.79,VALID,0,VALID,95.9255,VALID,0,VALID,22.964,VALID,33,VALID,0.137891,
2008-11-02, 01:31:04,VALID,1005.79,VALID,0,VALID,95.9255,VALID,0,VALID,22.964,VALID,33,VALID,0.00117188,
2008-11-02, 01:32:04,VALID,1005.79,VALID,0,VALID,95.9484,VALID,0,VALID,22.9834,VALID,33,VALID,0.223828,
2008-11-02, 01:33:04,VALID,1005.76,VALID,0,VALID,95.9789,VALID,0,VALID,23.0029,VALID,33,VALID,0.336719,
2008-11-02, 01:34:04,VALID,1005.74,VALID,0,VALID,95.9484,VALID,0,VALID,23.0241,VALID,33,VALID,0.0976563,
2008-11-02, 01:35:04,VALID,1005.7,VALID,0,VALID,95.9866,VALID,0,VALID,23.0224,VALID,45,VALID,0.495703,
2008-11-02, 01:36:04,VALID,1005.7,VALID,0,VALID,95.9866,VALID,0,VALID,23.0613,VALID,52,VALID,0.300391,
2008-11-02, 01:37:04,VALID,1005.69,VALID,0,VALID,95.9866,VALID,0,VALID,23.0807,VALID,52,VALID,0.124609,
2008-11-02, 01:38:04,VALID,1005.65,VALID,0,VALID,95.9789,VALID,0,VALID,23.1197,VALID,67,VALID,0.137891,
2008-11-02, 01:39:04,VALID,1005.63,VALID,0,VALID,95.9484,VALID,0,VALID,23.1391,VALID,67,VALID,0.369922,
2008-11-02, 01:40:04,VALID,1005.6,VALID,0,VALID,95.9561,VALID,0,VALID,23.1798,VALID,67,VALID,0.421094,
2008-11-02, 01:41:04,VALID,1005.55,VALID,0,VALID,95.9255,VALID,0,VALID,23.1798,VALID,68,VALID,0.219922,
2008-11-02, 01:42:04,VALID,1005.51,VALID,0,VALID,95.895,VALID,0,VALID,23.178,VALID,68,VALID,0.448828,
2008-11-02, 01:43:04,VALID,1005.5,VALID,0,VALID,95.8569,VALID,0,VALID,23.1993,VALID,68,VALID,0.271484,
2008-11-02, 01:44:04,VALID,1005.48,VALID,0,VALID,95.8493,VALID,0,VALID,23.1975,VALID,68,VALID,0.179297,
2008-11-02, 01:45:04,VALID,1005.44,VALID,0,VALID,95.8035,VALID,0,VALID,23.2187,VALID,72,VALID,0.404687,
2008-11-02, 01:46:04,VALID,1005.41,VALID,0,VALID,95.773,VALID,0,VALID,23.1993,VALID,81,VALID,0.0769531,
2008-11-02, 01:47:04,VALID,1005.42,VALID,0,VALID,95.7501,VALID,0,VALID,23.178,VALID,81,VALID,0.325,
2008-11-02, 01:48:04,VALID,1005.41,VALID,0,VALID,95.7424,VALID,0,VALID,23.1993,VALID,81,VALID,0.198437,
2008-11-02, 01:49:04,VALID,1005.38,VALID,0,VALID,95.7501,VALID,0,VALID,23.1993,VALID,81,VALID,0.377344,
2008-11-02, 01:50:04,VALID,1005.35,VALID,0,VALID,95.7424,VALID,0,VALID,23.1993,VALID,81,VALID,0.440625,
2008-11-02, 01:51:04,VALID,1005.34,VALID,0,VALID,95.7501,VALID,0,VALID,23.1975,VALID,81,VALID,0.160938,
2008-11-02, 01:52:04,VALID,1005.32,VALID,0,VALID,95.7424,VALID,0,VALID,23.1975,VALID,81,VALID,0.00585938,
2008-11-02, 01:53:04,VALID,1005.29,VALID,0,VALID,95.7196,VALID,0,VALID,23.2187,VALID,81,VALID,0,
2008-11-02, 01:54:04,VALID,1005.3,VALID,0,VALID,95.7119,VALID,0,VALID,23.1993,VALID,81,VALID,0,
2008-11-02, 01:55:04,VALID,1005.27,VALID,0,VALID,95.7501,VALID,0,VALID,23.2187,VALID,81,VALID,0.334375,
2008-11-02, 01:56:04,VALID,1005.29,VALID,0,VALID,95.7577,VALID,0,VALID,23.2382,VALID,81,VALID,0.353906,
2008-11-02, 01:57:04,VALID,1005.26,VALID,0,VALID,95.7424,VALID,0,VALID,23.2382,VALID,81,VALID,0.333203,
2008-11-02, 01:58:04,VALID,1005.27,VALID,0,VALID,95.7424,VALID,0,VALID,23.2559,VALID,81,VALID,0.134375,
2008-11-02, 01:59:04,VALID,1005.25,VALID,0,VALID,95.7043,VALID,0,VALID,23.217,VALID,81,VALID,0,
2008-11-02, 02:00:04,VALID,1005.27,VALID,0,VALID,95.6967,VALID,0,VALID,23.2364,VALID,81,VALID,0.0222656,
2008-11-02, 02:01:04,VALID,1005.23,VALID,0,VALID,95.7272,VALID,0,VALID,23.2559,VALID,81,VALID,0.254687,
2008-11-02, 02:02:04,VALID,1005.23,VALID,0,VALID,95.7424,VALID,0,VALID,23.2559,VALID,81,VALID,0.267578,
2008-11-02, 02:03:04,VALID,1005.22,VALID,0,VALID,95.7424,VALID,0,VALID,23.2966,VALID,73,VALID,0.236719,
2008-11-02, 02:04:04,VALID,1005.22,VALID,0,VALID,95.689,VALID,0,VALID,23.2559,VALID,73,VALID,0.394922,
2008-11-02, 02:05:04,VALID,1005.17,VALID,0,VALID,95.689,VALID,0,VALID,23.2771,VALID,44,VALID,0.555859,
2008-11-02, 02:06:04,VALID,1005.16,VALID,0,VALID,95.6433,VALID,0,VALID,23.2559,VALID,43,VALID,0.234766,
2008-11-02, 02:07:04,VALID,1005.15,VALID,0,VALID,95.628,VALID,0,VALID,23.2559,VALID,43,VALID,0,
2008-11-02, 02:08:04,VALID,1005.11,VALID,0,VALID,95.6738,VALID,0,VALID,23.2754,VALID,42,VALID,0.0972656,
2008-11-02, 02:09:04,VALID,1005.1,VALID,0,VALID,95.7196,VALID,0,VALID,23.2966,VALID,37,VALID,0.489844,
2008-11-02, 02:10:04,VALID,1005.1,VALID,0,VALID,95.7196,VALID,0,VALID,23.3337,VALID,28,VALID,0.189844,
2008-11-02, 02:11:04,VALID,1005.04,VALID,0,VALID,95.6509,VALID,0,VALID,23.3532,VALID,28,VALID,0.425,
2008-11-02, 02:12:04,VALID,1005.03,VALID,0,VALID,95.6433,VALID,0,VALID,23.4328,VALID,22,VALID,0.367188,
2008-11-02, 02:13:04,VALID,1005.04,VALID,0,VALID,95.6509,VALID,0,VALID,23.4912,VALID,7,VALID,0.339453,
2008-11-02, 02:14:04,VALID,1005.01,VALID,0,VALID,95.5899,VALID,0,VALID,23.5691,VALID,11,VALID,0.548828,
2008-11-02, 02:15:04,VALID,1005,VALID,0,VALID,95.4373,VALID,0,VALID,23.5885,VALID,35,VALID,0.252344,
2008-11-02, 02:16:04,VALID,1005,VALID,0,VALID,95.3305,VALID,0,VALID,23.608,VALID,35,VALID,0.0648438,
2008-11-02, 02:17:04,VALID,1004.99,VALID,0,VALID,95.2466,VALID,0,VALID,23.608,VALID,35,VALID,0,
2008-11-02, 02:18:04,VALID,1004.99,VALID,0,VALID,95.1474,VALID,0,VALID,23.608,VALID,35,VALID,0,
2008-11-02, 02:19:04,VALID,1005,VALID,0,VALID,95.094,VALID,0,VALID,23.5868,VALID,35,VALID,0.158203,
2008-11-02, 02:20:04,VALID,1005,VALID,0,VALID,95.0558,VALID,0,VALID,23.5673,VALID,39,VALID,0.371094,
2008-11-02, 02:21:04,VALID,1004.99,VALID,0,VALID,95.0558,VALID,0,VALID,23.5673,VALID,51,VALID,0.360938,
2008-11-02, 02:22:04,VALID,1004.98,VALID,0,VALID,95.0482,VALID,0,VALID,23.5691,VALID,51,VALID,0.180859,
2008-11-02, 02:23:04,VALID,1004.99,VALID,0,VALID,95.033,VALID,0,VALID,23.5284,VALID,51,VALID,0.207813,
2008-11-02, 02:24:04,VALID,1004.99,VALID,0,VALID,95.0482,VALID,0,VALID,23.5284,VALID,51,VALID,0.100781,
2008-11-02, 02:25:04,VALID,1004.99,VALID,0,VALID,95.0558,VALID,0,VALID,23.5302,VALID,51,VALID,0.0726563,
2008-11-02, 02:26:04,VALID,1004.98,VALID,0,VALID,95.0406,VALID,0,VALID,23.47,VALID,51,VALID,0.00195313,
2008-11-02, 02:27:04,VALID,1004.94,VALID,0,VALID,95.033,VALID,0,VALID,23.4505,VALID,51,VALID,0.0304688,
2008-11-02, 02:28:04,VALID,1004.9,VALID,0,VALID,95.0558,VALID,0,VALID,23.4523,VALID,51,VALID,0.227344,
2008-11-02, 02:29:04,VALID,1004.9,VALID,0,VALID,95.1093,VALID,0,VALID,23.4116,VALID,51,VALID,0.254687,
2008-11-02, 02:30:04,VALID,1004.89,VALID,0,VALID,95.1093,VALID,0,VALID,23.4134,VALID,51,VALID,0.267578,
2008-11-02, 02:31:04,VALID,1004.86,VALID,0,VALID,95.155,VALID,0,VALID,23.3727,VALID,51,VALID,0.129297,
2008-11-02, 02:32:04,VALID,1004.85,VALID,0,VALID,95.1703,VALID,0,VALID,23.3744,VALID,51,VALID,0,
2008-11-02, 02:33:04,VALID,1004.81,VALID,0,VALID,95.2161,VALID,0,VALID,23.3744,VALID,51,VALID,0,
2008-11-02, 02:34:04,VALID,1004.79,VALID,0,VALID,95.2618,VALID,0,VALID,23.3355,VALID,51,VALID,0,
2008-11-02, 02:35:04,VALID,1004.76,VALID,0,VALID,95.2923,VALID,0,VALID,23.3143,VALID,51,VALID,0.243359,
2008-11-02, 02:36:04,VALID,1004.74,VALID,0,VALID,95.3229,VALID,0,VALID,23.316,VALID,51,VALID,0.129688,
2008-11-02, 02:37:04,VALID,1004.74,VALID,0,VALID,95.3,VALID,0,VALID,23.2754,VALID,51,VALID,0.183203,
2008-11-02, 02:38:04,VALID,1004.74,VALID,0,VALID,95.2923,VALID,0,VALID,23.2577,VALID,51,VALID,0.323438,
2008-11-02, 02:39:04,VALID,1004.73,VALID,0,VALID,95.3,VALID,0,VALID,23.217,VALID,51,VALID,0.434375,
2008-11-02, 02:40:04,VALID,1004.72,VALID,0,VALID,95.3229,VALID,0,VALID,23.2187,VALID,51,VALID,0.405469,
2008-11-02, 02:41:04,VALID,1004.71,VALID,0,VALID,95.361,VALID,0,VALID,23.178,VALID,51,VALID,0.376563,
2008-11-02, 02:42:04,VALID,1004.7,VALID,0,VALID,95.3686,VALID,0,VALID,23.1586,VALID,51,VALID,0.277734,
2008-11-02, 02:43:04,VALID,1004.68,VALID,0,VALID,95.3381,VALID,0,VALID,23.1391,VALID,51,VALID,0.115625,
2008-11-02, 02:44:04,VALID,1004.65,VALID,0,VALID,95.3991,VALID,0,VALID,23.1197,VALID,51,VALID,0,
2008-11-02, 02:45:04,VALID,1004.66,VALID,0,VALID,95.4144,VALID,0,VALID,23.0807,VALID,51,VALID,0.0398437,
2008-11-02, 02:46:04,VALID,1004.65,VALID,0,VALID,95.4068,VALID,0,VALID,23.0613,VALID,51,VALID,0.207813,
2008-11-02, 02:47:04,VALID,1004.63,VALID,0,VALID,95.4754,VALID,0,VALID,23.0418,VALID,51,VALID,0,
2008-11-02, 02:48:04,VALID,1004.64,VALID,0,VALID,95.4526,VALID,0,VALID,23.0224,VALID,51,VALID,0,
2008-11-02, 02:49:04,VALID,1004.61,VALID,0,VALID,95.4526,VALID,0,VALID,23.0241,VALID,51,VALID,0,
2008-11-02, 02:50:04,VALID,1004.6,VALID,0,VALID,95.5441,VALID,0,VALID,22.9834,VALID,51,VALID,0,
2008-11-02, 02:51:04,VALID,1004.58,VALID,0,VALID,95.5594,VALID,0,VALID,22.9834,VALID,51,VALID,0,
2008-11-02, 02:52:04,VALID,1004.56,VALID,0,VALID,95.6051,VALID,0,VALID,22.9834,VALID,51,VALID,0,
2008-11-02, 02:53:04,VALID,1004.54,VALID,0,VALID,95.628,VALID,0,VALID,23.0046,VALID,51,VALID,0,
2008-11-02, 02:54:04,VALID,1004.54,VALID,0,VALID,95.6585,VALID,0,VALID,23.0046,VALID,51,VALID,0,
2008-11-02, 02:55:04,VALID,1004.53,VALID,0,VALID,95.6433,VALID,0,VALID,22.9852,VALID,51,VALID,0,
2008-11-02, 02:56:04,VALID,1004.54,VALID,0,VALID,95.5746,VALID,0,VALID,22.9463,VALID,51,VALID,0,
2008-11-02, 02:57:04,VALID,1004.55,VALID,0,VALID,95.5822,VALID,0,VALID,22.9056,VALID,51,VALID,0,
2008-11-02, 02:58:04,VALID,1004.53,VALID,0,VALID,95.6128,VALID,0,VALID,22.9073,VALID,51,VALID,0,
2008-11-02, 02:59:04,VALID,1004.53,VALID,0,VALID,95.6662,VALID,0,VALID,22.9268,VALID,51,VALID,0,
2008-11-02, 03:00:04,VALID,1004.52,VALID,0,VALID,95.689,VALID,0,VALID,22.9073,VALID,51,VALID,0,
2008-11-02, 03:01:04,VALID,1004.54,VALID,0,VALID,95.7577,VALID,0,VALID,22.9056,VALID,51,VALID,0,
2008-11-02, 03:02:04,VALID,1004.55,VALID,0,VALID,95.773,VALID,0,VALID,22.9463,VALID,51,VALID,0,
2008-11-02, 03:03:04,VALID,1004.54,VALID,0,VALID,95.8035,VALID,0,VALID,22.9445,VALID,59,VALID,0.487891,
2008-11-02, 03:04:04,VALID,1004.52,VALID,0,VALID,95.8187,VALID,0,VALID,22.964,VALID,59,VALID,0.566406,
2008-11-02, 03:05:04,VALID,1004.51,VALID,0,VALID,95.834,VALID,0,VALID,22.9834,VALID,60,VALID,0.402734,
2008-11-02, 03:06:04,VALID,1004.51,VALID,0,VALID,95.8035,VALID,0,VALID,22.9834,VALID,60,VALID,0.552344,
2008-11-02, 03:07:04,VALID,1004.52,VALID,0,VALID,95.8416,VALID,0,VALID,23.0241,VALID,64,VALID,0.407031,
2008-11-02, 03:08:04,VALID,1004.5,VALID,0,VALID,95.7882,VALID,0,VALID,23.0241,VALID,64,VALID,0.274219,
2008-11-02, 03:09:04,VALID,1004.48,VALID,0,VALID,95.7501,VALID,0,VALID,22.9834,VALID,64,VALID,0.124219,
2008-11-02, 03:10:04,VALID,1004.48,VALID,0,VALID,95.7272,VALID,0,VALID,23.0046,VALID,64,VALID,0.227344,
2008-11-02, 03:11:04,VALID,1004.46,VALID,0,VALID,95.7196,VALID,0,VALID,22.9834,VALID,64,VALID,0.274219,
2008-11-02, 03:12:04,VALID,1004.42,VALID,0,VALID,95.7577,VALID,0,VALID,22.9622,VALID,64,VALID,0.321875,
2008-11-02, 03:13:04,VALID,1004.43,VALID,0,VALID,95.7196,VALID,0,VALID,22.9834,VALID,64,VALID,0.171875,
2008-11-02, 03:14:04,VALID,1004.4,VALID,0,VALID,95.7119,VALID,0,VALID,22.9852,VALID,64,VALID,0.00625,
2008-11-02, 03:15:04,VALID,1004.41,VALID,0,VALID,95.7196,VALID,0,VALID,22.964,VALID,64,VALID,0.262109,
2008-11-02, 03:16:04,VALID,1004.42,VALID,0,VALID,95.7196,VALID,0.100563,VALID,22.9657,VALID,64,VALID,0,
2008-11-02, 03:17:04,VALID,1004.4,VALID,0,VALID,95.7501,VALID,0,VALID,22.964,VALID,64,VALID,0.204297,
2008-11-02, 03:18:04,VALID,1004.42,VALID,0,VALID,95.8035,VALID,0,VALID,22.9834,VALID,64,VALID,0.245703,
2008-11-02, 03:19:04,VALID,1004.42,VALID,0,VALID,95.7959,VALID,0,VALID,23.0046,VALID,64,VALID,0.301172,
2008-11-02, 03:20:04,VALID,1004.42,VALID,0,VALID,95.7043,VALID,0,VALID,22.964,VALID,62,VALID,0.315625,
2008-11-02, 03:21:04,VALID,1004.39,VALID,0,VALID,95.7196,VALID,0,VALID,22.9445,VALID,62,VALID,0.296484,
2008-11-02, 03:22:04,VALID,1004.36,VALID,0,VALID,95.7424,VALID,0,VALID,22.964,VALID,62,VALID,0.338281,
2008-11-02, 03:23:04,VALID,1004.37,VALID,0,VALID,95.773,VALID,0,VALID,22.9834,VALID,44,VALID,0,
2008-11-02, 03:24:04,VALID,1004.34,VALID,0,VALID,95.8111,VALID,0,VALID,23.0029,VALID,44,VALID,0,
2008-11-02, 03:25:04,VALID,1004.34,VALID,0,VALID,95.8798,VALID,0.100563,VALID,23.0613,VALID,44,VALID,0,
2008-11-02, 03:26:04,VALID,1004.34,VALID,0,VALID,95.8416,VALID,0,VALID,23.0613,VALID,44,VALID,0,
2008-11-02, 03:27:04,VALID,1004.32,VALID,0,VALID,95.834,VALID,0,VALID,23.0807,VALID,45,VALID,0,
2008-11-02, 03:28:04,VALID,1004.33,VALID,0,VALID,95.8111,VALID,0,VALID,23.0807,VALID,45,VALID,0,
2008-11-02, 03:29:04,VALID,1004.32,VALID,0,VALID,95.8035,VALID,0,VALID,23.0613,VALID,45,VALID,0,
2008-11-02, 03:30:04,VALID,1004.32,VALID,0,VALID,95.7959,VALID,0,VALID,23.0613,VALID,45,VALID,0,
2008-11-02, 03:31:04,VALID,1004.32,VALID,0,VALID,95.7501,VALID,0,VALID,23.0418,VALID,45,VALID,0,
2008-11-02, 03:32:04,VALID,1004.31,VALID,0,VALID,95.8111,VALID,0,VALID,23.0807,VALID,45,VALID,0,
2008-11-02, 03:33:04,VALID,1004.3,VALID,0,VALID,95.6967,VALID,0,VALID,23.0224,VALID,45,VALID,0,
2008-11-02, 03:34:04,VALID,1004.28,VALID,0,VALID,95.6738,VALID,0,VALID,23.0029,VALID,45,VALID,0,
2008-11-02, 03:35:04,VALID,1004.29,VALID,0,VALID,95.5441,VALID,0,VALID,22.9251,VALID,45,VALID,0,
2008-11-02, 03:36:04,VALID,1004.28,VALID,0,VALID,95.5822,VALID,0,VALID,22.9056,VALID,45,VALID,0,
2008-11-02, 03:37:04,VALID,1004.28,VALID,0,VALID,95.506,VALID,0,VALID,22.8667,VALID,45,VALID,0,
2008-11-02, 03:38:04,VALID,1004.3,VALID,0,VALID,95.5899,VALID,0,VALID,22.8472,VALID,45,VALID,0,
2008-11-02, 03:39:04,VALID,1004.3,VALID,0,VALID,95.773,VALID,0,VALID,22.8667,VALID,45,VALID,0,
2008-11-02, 03:40:04,VALID,1004.34,VALID,0,VALID,95.834,VALID,0,VALID,22.9056,VALID,45,VALID,0,
2008-11-02, 03:41:04,VALID,1004.33,VALID,0,VALID,95.7043,VALID,0,VALID,22.8472,VALID,45,VALID,0,
2008-11-02, 03:42:04,VALID,1004.33,VALID,0,VALID,95.6509,VALID,0,VALID,22.8083,VALID,36,VALID,0.542188,
2008-11-02, 03:43:04,VALID,1004.33,VALID,0,VALID,95.6814,VALID,0,VALID,22.7888,VALID,33,VALID,0.471094,
2008-11-02, 03:44:04,VALID,1004.36,VALID,0,VALID,95.6814,VALID,0,VALID,22.7499,VALID,33,VALID,0.454297,
2008-11-02, 03:45:04,VALID,1004.35,VALID,0,VALID,95.7196,VALID,0,VALID,22.7305,VALID,33,VALID,0.521094,
2008-11-02, 03:46:04,VALID,1004.36,VALID,0,VALID,95.7959,VALID,0.100563,VALID,22.7305,VALID,25,VALID,0.460156,
2008-11-02, 03:47:04,VALID,1004.34,VALID,0,VALID,95.8416,VALID,0,VALID,22.7305,VALID,22,VALID,0.474609,
2008-11-02, 03:48:04,VALID,1004.34,VALID,0,VALID,95.8798,VALID,0,VALID,22.7516,VALID,14,VALID,0.438281,
2008-11-02, 03:49:04,VALID,1004.3,VALID,0,VALID,95.9789,VALID,0,VALID,22.7305,VALID,14,VALID,0.204688,
2008-11-02, 03:50:04,VALID,1004.3,VALID,0,VALID,95.9789,VALID,0,VALID,22.7499,VALID,14,VALID,0.214453,
2008-11-02, 03:51:04,VALID,1004.29,VALID,0,VALID,96.0171,VALID,0,VALID,22.7694,VALID,14,VALID,0,
2008-11-02, 03:52:04,VALID,1004.31,VALID,0,VALID,95.9484,VALID,0,VALID,22.7499,VALID,14,VALID,0,